Language selection

My Weather Profile Weather Topics  | 

Hecate Strait - southern half: Past 24 Hour Conditions

 

Sandspit Airport

10:00 PM PDT 18 September 2021
Disclaimer

This table is a summary of hourly weather conditions for the past 24 hours.
Please note that these observations might not always be representative of weather conditions over their associated marine area.

Date / Time
(PDT)
Wind(knots) Conditions Visibility(km) Pressure(kPa) Air tempC) Relative humidity(%) Dew pointC)
18 September 2021
22:00 NW 5 Cloudy 16 100.1 13 93 11
21:00 W 5 Light Rain 13 100.0 13 92 11
20:00 SW 5 Cloudy 16 99.8 13 87 11
19:00 WSW 10 Cloudy 16 99.8 14 83 11
18:00 W 12 Mostly Cloudy 16 99.7 15 79 11
17:00 W 11 Mostly Cloudy 16 99.6 15 76 11
16:00 WSW 10 Mostly Cloudy 16 99.5 16 73 11
15:00 WSW 7 Cloudy 16 99.5 15 83 12
14:00 W 9 Cloudy 16 99.4 14 89 12
13:00 W 8 Light Rain 6 99.3 12 96 12
12:00 E 3 Cloudy 16 99.2 13 92 12
11:00 SSE 3 Cloudy 16 99.1 12 95 11
10:00 SSE 4 Light Rain 11 99.0 12 94 11
9:00 SSE 7 Mostly Cloudy 16 98.9 11 98 11
8:00 SSE 5 Mostly Cloudy 16 98.8 10 98 10
7:00 S 4 Cloudy 16 98.8 11 97 10
6:00 SSE 6 Cloudy 16 98.8 11 97 10
5:00 SSE 9 gust 15 Cloudy 16 98.7 11 96 11
4:00 SE 14 gust 19 Cloudy 16 98.7 11 96 11
3:00 SE 15 gust 22 Cloudy 16 98.7 11 97 11
2:00 SE 19 Cloudy 15 98.7 11 97 11
1:00 SE 19 gust 25 Light Rain 10 98.7 11 97 11
0:00 SE 21 gust 27 Mist 10 98.7 11 96 11
17 September 2021
23:00 SE 23 gust 29 Cloudy 11 98.7 12 97 11
22:00 SSE 23 gust 29 Light Rain 8 98.6 12 96 11

Zoom-in to make a selection

Map of Pacific - North Coast marine weather areas Middle Nomad - 46004 South Nomad - 46036 Dixon Entrance Central - 46145 South Moresby - 46147 Nanakwa Shoal - 46181 North Hecate Strait - 46183 North Nomad - 46184 South Hecate Strait - 46185 West Sea Otter - 46204 West Dixon Entrance - 46205 East Dellwood - 46207 West Moresby - 46208 Sartine Island Cape St.James Kindakun Rocks Langara Island Masset Municipal Airport Rose Spit Sandspit Airport Bella Bella Airport Bella Coola Airport Bonilla Island Cathedral Point Cumshewa Island Grey Islet Holland Rock Lucy Islands Lightstation Prince Rupert Airport
Legend:
buoy Buoy
land station Land Station

Pacific - North Coast Area

Another Region

What we are doing

Date modified: